Retour au catalogue

IRIDIUM 174

ActifCommunicationsPO
NORAD 56728·PAYLOAD·🇺🇸 United States

Lancé May 20, 2023 depuis Vandenberg Space Force Base

Loading…

Prochains Passages (prochaines 24 heures)

TLE

FraisSource: CelesTrak SupGP

Époque: Sep 15, 2026, 02:14 UTC

1 56728C 23068U   26258.09340278  .00002864  00000+0  45487-3 0  2581
2 56728  86.6103 316.1262 0002762  94.2757   8.2125 14.72257287    10

Suivez IRIDIUM 174 en temps réel avec AllMySat

Download on the App Store